Simultaneous Nadir Overpasses (SNOs) Predictions

Prediction of SNOs between GOES-17 and METOP-C Satellite Orbit:

Table of predicted SNOs for the next 14.0 days since TLE Epoch: 12/1/2024
Index Date Time (GOES-17) GOES-17 Lat,Lon METOP-C Lat,Lon Distance(km) Time Diff (sec)
1 12/02/2024 16:30:43 -0.00,-104.71 -0.01,-104.55 18.22 80
2 12/05/2024 04:26:25 0.01,-104.66 0.11,-104.15 57.15 80
3 12/06/2024 16:45:18 -0.00,-104.69 0.87,-108.73 459.16 80
4 12/07/2024 16:27:19 -0.00,-104.69 -0.23,-103.73 109.83 80
5 12/09/2024 04:46:19 0.00,-104.65 -0.79,-108.33 418.30 80
6 12/10/2024 04:23:00 0.00,-104.65 0.31,-103.33 150.31 80
7 12/11/2024 16:41:52 -0.01,-104.68 0.70,-107.89 366.32 80
8 12/12/2024 16:23:53 -0.00,-104.67 -0.41,-102.90 202.69 80
9 12/14/2024 04:42:52 0.01,-104.63 -0.64,-107.49 325.08 80
